< < Back
Terminal Aerodrome Forecast


Current Version              Previous Versions:   1  2  3  4  5  6  7  8  9  

Terminal Aerodrome Forecast

532
FTUS42 KFFC 251700
TAFCSG
TAF
KCSG 251733Z 2518/2618 36006KT P6SM SKC
     FM260500 31004KT P6SM FEW025
     FM261300 33005KT P6SM FEW250=



Latest METAR

898
SAUS70 KWBC 260500
MTRCSG
METAR KCSG 260451Z AUTO 35004KT 10SM CLR 17/11 A3003 RMK AO2 SLP165
T01720106 402610089


USA.gov is the U.S. government's official web portal to all federal, state and local government web resources and services.